Location: Unspecified
(0.0000°N, 0.0000°E)
Time: 11:14:45
(UTC+00:00)

Vanguard 1 - Pass Details

Date: 20 November 2019
Orbit: 651 x 3832 km, 34.3° (Epoch: 13 December)

Event Time Altitude Azimuth Distance (km) Brightness Sun altitude
Rises 07:40:27 0° 246° (WSW) 7,820 14.3 26.9°
Reaches altitude 10° 07:46:33 10° 251° (WSW) 6,534 13.9 28.3°
Maximum altitude 08:04:45 46° 318° (NW) 3,053 12.5 32.5°
Drops below altitude 10° 08:15:19 10° 29° (NNE) 3,908 13.3 34.9°
Sets 08:18:00 0° 36° (NE) 4,561 13.6 35.5°
